[[{"header":{"parameterUnit":"m.s-1","parameterCategory":1,"la1":30.2991,"la2":30.254,"lo1":-89.0895,"lo2":-89.0444,"dy":0.0017,"dx":0.0017,"nx":28,"ny":28,"refTime":"2023-04-26T15:00:00:Z","depth":0,"parameterNumber":2,"parameterNumberName":"U-component_of_WINDS"},"data":[0,0,0,0,0,0,0,0,0,0,0,0,0,0,0,0,0,0,0,0,0,0,0,0,0,0,0,0,0,0,0,0,0,0,0,0,0,0,0,0,0,0,0,0,0,0,0,0,0,0,0,0,0,0,0,0,0,0,0.6367,0.6366,0,0.6334,0.6334,0.6334,0.6327,0.6327,0.6328,0.6328,0.6292,0.6291,0.629,0,0,0,0,0,0,0,0,0,0,0,0,0,0.642,0.642,0.6367,0.6366,0.6366,0.6334,0.6334,0.6334,0.6327,0.6327,0.6328,0.6328,0.6292,0.6291,0.629,0,0,0,0,0,0,0,0,0,0,0,0,0,0.6393,0.6419,0.6367,0.6359,0.6358,0.6335,0.6334,0.6333,0.6327,0.6328,0.6328,0.6328,0.6293,0.6291,0.6289,0.627,0,0,0.6284,0.6283,0,0,0,0,0,0,0,0,0.6395,0.6391,0.6361,0.636,0.6358,0.6335,0.634,0.6312,0.6327,0.6339,0.6328,0.6328,0.6306,0.6303,0.6296,0.6269,0.6267,0.6284,0.6283,0.6282,0.6281,0,0,0,0,0,0,0,0.6397,0.6393,0.6354,0.636,0.6359,0.6356,0.6353,0.6334,0.632,0.6338,0.6337,0.6334,0.6305,0.6298,0.6295,0.6267,0.6284,0.6282,0.6281,0.628,0.6221,0.6221,0,0,0,0,0,0,0.6401,0.6394,0.6355,0.6353,0.6378,0.6355,0.6351,0.6342,0.6321,0.6318,0.6333,0.6333,0.6301,0.6297,0.6294,0.6269,0.6282,0.628,0.6279,0.6222,0.6221,0.622,0,0,0,0,0,0,0.6402,0.6397,0.6356,0.6374,0.6368,0.6354,0.6344,0.6341,0.6334,0.6317,0.6315,0.6328,0.6301,0.6296,0.6276,0.6268,0.6279,0.6278,0.6222,0.6221,0.6221,0.6221,0,0,0,0,0,0,0.6403,0.6398,0.6391,0.6373,0.6367,0.634,0.6343,0.6341,0.6331,0.6331,0.6312,0.6309,0.6301,0.6279,0.6274,0.6266,0.6276,0.6223,0.6222,0.6221,0.6221,0.622,0.6219,0,0,0,0,0,0.6405,0.6392,0.6391,0.6386,0.6359,0.634,0.6336,0.6327,0.6331,0.6323,0.6312,0.631,0.627,0.6277,0.6272,0.6262,0.6223,0.6222,0.6221,0.6222,0.622,0.6219,0,0,0,0,0,0,0.6408,0.6389,0.6388,0.6369,0.6356,0.6339,0.6329,0.6326,0.6312,0.6312,0.6301,0.6297,0.6277,0.6268,0.6276,0.6243,0.6247,0.6244,0.6249,0.6248,0.6246,0.6248,0.6275,0,0,0,0,0,0.6406,0.6393,0.6377,0.6362,0.6356,0.6344,0.6335,0.633,0.6315,0.631,0.6298,0.6283,0.6267,0.6257,0.6242,0.6221,0.6215,0.6211,0.621,0.6209,0.6207,0.6194,0.6192,0.6217,0.6217,0.6217,0,0,0.6402,0.6391,0.6383,0.6362,0.6352,0.6337,0.6339,0.6324,0.6313,0.6307,0.6287,0.6278,0.6261,0.624,0.623,0.6232,0.6199,0.6208,0.6207,0.6206,0.6193,0.619,0.6188,0.6216,0.6216,0.6216,0,0,0.6388,0.6379,0.6364,0.6354,0.6338,0.633,0.6327,0.631,0.6304,0.6284,0.6279,0.6266,0.6239,0.6227,0.6217,0.6199,0.6195,0.6194,0.6187,0.6175,0.6173,0.6171,0.6163,0.616,0.6192,0.6192,0.6192,0,0.6385,0.6364,0.6357,0.6342,0.6332,0.6328,0.6312,0.6302,0.6282,0.6275,0.6278,0.6244,0.6232,0.6208,0.6203,0.6196,0.6191,0.6195,0.6174,0.6172,0.617,0.6162,0.6159,0.6192,0.6192,0.6192,0.6192,0,0.6361,0.6346,0.6336,0.6318,0.6307,0.6292,0.6282,0.6272,0.6267,0.6259,0.6238,0.6224,0.6205,0.62,0.6195,0.6174,0.6176,0.6176,0.618,0.6168,0.616,0.6157,0.6192,0.6192,0.6192,0.6192,0,0,0.6346,0.6324,0.6321,0.6312,0.6294,0.6282,0.6267,0.6249,0.624,0.6227,0.6212,0.619,0.619,0.6179,0.6173,0.6162,0.6147,0.6164,0.6163,0.616,0.6122,0.6121,0.6118,0.6145,0.6145,0.6144,0.6123,0,0.6329,0.6302,0.6295,0.6271,0.6257,0.6252,0.6239,0.6226,0.6217,0.6203,0.6194,0.6178,0.618,0.6173,0.6162,0.6151,0.6139,0.6153,0.613,0.613,0.6133,0.6114,0.6113,0.6093,0.612,0.612,0.6119,0,0.6305,0.6292,0.6267,0.6251,0.6244,0.6232,0.6215,0.6202,0.6187,0.6182,0.617,0.6165,0.6147,0.6153,0.6128,0.6137,0.6128,0.6121,0.612,0.6116,0.6123,0.6109,0.6087,0.6084,0.6115,0.6115,0.6116,0,0.6296,0.6271,0.6253,0.6246,0.6227,0.6218,0.6209,0.6195,0.6185,0.617,0.6163,0.6146,0.6136,0.6123,0.6113,0.6118,0.6088,0.6093,0.6082,0.6082,0.6075,0.6075,0.605,0.6071,0.6071,0.6071,0.6071,0,0.6276,0.6261,0.6248,0.6237,0.6219,0.6211,0.6193,0.6185,0.6172,0.6158,0.6153,0.614,0.6128,0.6113,0.6105,0.6085,0.6081,0.6075,0.6073,0.6075,0.6075,0.6067,0.6068,0.607,0.607,0.6071,0.6071,0,0.6262,0.6253,0.6233,0.6217,0.6212,0.62,0.6186,0.6174,0.6166,0.6148,0.6143,0.613,0.6112,0.6101,0.6078,0.6073,0.605,0.6049,0.6055,0.6054,0.6043,0.6043,0.6011,0.6005,0.6031,0.6031,0.6031,0,0.625,0.6238,0.6221,0.6212,0.6203,0.6188,0.6178,0.6169,0.6159,0.6141,0.6131,0.6113,0.6097,0.6069,0.6056,0.6038,0.6036,0.6026,0.6033,0.6035,0.6034,0.6035,0.6033,0.6024,0.6024,0.6024,0.6024,0,0.6228,0.6225,0.6211,0.6195,0.6183,0.617,0.6157,0.6149,0.6138,0.6126,0.6108,0.6096,0.6073,0.6055,0.6036,0.6026,0.6022,0.6022,0.6018,0.6019,0.6022,0.6019,0.605,0.6022,0.6022,0.6022,0.6022,0.6023,0.6214,0.6203,0.6189,0.6173,0.6162,0.615,0.6138,0.6129,0.6114,0.6095,0.6091,0.6071,0.6056,0.603,0.602,0.6004,0.6005,0.6,0.5999,0.5997,0.5996,0.6026,0.6001,0.6001,0.6001,0.6001,0.6001,0,0.6191,0.6182,0.6168,0.615,0.6137,0.6136,0.6122,0.6111,0.6094,0.608,0.6066,0.6045,0.6027,0.6013,0.5995,0.5984,0.5982,0.5979,0.5979,0.5977,0.5997,0.6001,0.5982,0.5982,0.5982,0.5982,0.5982,0.5982,0.6177,0.6158,0.6153,0.6128,0.6119,0.6101,0.6092,0.608,0.607,0.6046,0.6032,0.6023,0.6009,0.599,0.5973,0.5969,0.5962,0.5959,0.5955,0.5974,0.5976,0.5978,0.5982,0.5958,0.5958,0.5937,0.5936,0.5936]},{"header":{"parameterUnit":"m.s-1","parameterCategory":1,"la1":30.2991,"la2":30.254,"lo1":-89.0895,"lo2":-89.0444,"dy":0.0017,"dx":0.0017,"nx":28,"ny":28,"refTime":"2023-04-26T15:00:00:Z","depth":0,"parameterNumber":3,"parameterNumberName":"V-component_of_WINDS"},"data":[0,0,0,0,0,0,0,0,0,0,0,0,0,0,0,0,0,0,0,0,0,0,0,0,0,0,0,0,0,0,0,0,0,0,0,0,0,0,0,0,0,0,0,0,0,0,0,0,0,0,0,0,0,0,0,0,0,0,1.1279,1.1278,0,1.1248,1.1247,1.1247,1.1205,1.1204,1.1204,1.1203,1.1172,1.1171,1.1171,0,0,0,0,0,0,0,0,0,0,0,0,0,1.1301,1.1301,1.1279,1.1278,1.1278,1.1248,1.1247,1.1247,1.1205,1.1204,1.1203,1.1203,1.1172,1.1171,1.1171,0,0,0,0,0,0,0,0,0,0,0,0,0,1.1283,1.1301,1.1279,1.1253,1.1251,1.1248,1.1247,1.1247,1.1205,1.1204,1.1203,1.1202,1.1172,1.1171,1.1171,1.119,0,0,1.117,1.117,0,0,0,0,0,0,0,0,1.1284,1.1282,1.1258,1.1255,1.1252,1.1229,1.1244,1.1228,1.1206,1.1223,1.1203,1.1202,1.1192,1.119,1.1186,1.1189,1.1188,1.117,1.117,1.117,1.117,0,0,0,0,0,0,0,1.1285,1.1283,1.1266,1.1257,1.1254,1.1243,1.124,1.124,1.1213,1.1221,1.1218,1.1215,1.119,1.1186,1.1185,1.1187,1.117,1.117,1.117,1.117,1.1203,1.1204,0,0,0,0,0,0,1.1291,1.1285,1.1267,1.1265,1.1266,1.1244,1.124,1.1238,1.1213,1.1209,1.1216,1.1213,1.1187,1.1185,1.1184,1.1204,1.117,1.117,1.117,1.1202,1.1203,1.1204,0,0,0,0,0,0,1.1291,1.1289,1.1269,1.1274,1.1271,1.1245,1.1243,1.1238,1.1234,1.1209,1.1204,1.1217,1.1187,1.1184,1.1189,1.1202,1.117,1.1169,1.12,1.1202,1.1204,1.1245,0,0,0,0,0,0,1.1292,1.129,1.1297,1.1275,1.1271,1.1274,1.1243,1.1238,1.1234,1.123,1.1209,1.1205,1.1186,1.1189,1.1188,1.1201,1.1169,1.1199,1.1201,1.1203,1.1242,1.1248,1.1252,0,0,0,0,0,1.1293,1.131,1.1298,1.1296,1.1279,1.1275,1.1273,1.125,1.1235,1.1242,1.1226,1.1205,1.1201,1.119,1.1189,1.1202,1.1198,1.1201,1.1203,1.124,1.1246,1.1252,0,0,0,0,0,0,1.1335,1.1307,1.1293,1.1303,1.1292,1.1268,1.1276,1.1258,1.1251,1.1248,1.122,1.1216,1.1224,1.1213,1.1202,1.1218,1.1196,1.1199,1.1225,1.1231,1.1236,1.1238,1.1169,0,0,0,0,0,1.1346,1.1345,1.132,1.1332,1.1327,1.1303,1.13,1.1284,1.1271,1.1266,1.125,1.1239,1.1234,1.1232,1.1227,1.124,1.1235,1.1248,1.1253,1.1258,1.126,1.1265,1.1271,1.1212,1.1212,1.1212,0,0,1.1368,1.1352,1.1353,1.134,1.1329,1.1329,1.1299,1.13,1.1299,1.1266,1.1269,1.1257,1.1242,1.1251,1.1254,1.1243,1.1275,1.1261,1.1264,1.1264,1.1268,1.1274,1.1279,1.1213,1.1213,1.1213,0,0,1.1407,1.1395,1.1403,1.1393,1.1377,1.1361,1.1363,1.1341,1.1332,1.1335,1.1309,1.1308,1.1302,1.1292,1.1286,1.1321,1.1301,1.132,1.1346,1.1352,1.1356,1.136,1.1372,1.1377,1.1322,1.1322,1.1322,0,1.1436,1.1435,1.141,1.1412,1.1407,1.1376,1.1384,1.1375,1.1358,1.1355,1.1342,1.1333,1.1321,1.1326,1.1335,1.1331,1.1332,1.1322,1.1358,1.1361,1.1365,1.1375,1.138,1.1324,1.1324,1.1324,1.1324,0,1.1471,1.147,1.1479,1.1463,1.1458,1.1464,1.1439,1.1438,1.1421,1.1406,1.1409,1.1393,1.1383,1.1383,1.1368,1.1387,1.138,1.1363,1.134,1.1373,1.1383,1.1387,1.1328,1.1327,1.1326,1.1325,0,0,1.1537,1.1506,1.151,1.1502,1.1482,1.148,1.1484,1.1474,1.1473,1.1463,1.1464,1.1459,1.1443,1.1436,1.1419,1.1424,1.1451,1.1406,1.1405,1.1414,1.147,1.1483,1.1488,1.1438,1.1439,1.144,1.1471,0,1.1572,1.1576,1.1553,1.1563,1.1562,1.1532,1.1535,1.1523,1.1509,1.1505,1.1489,1.1486,1.1465,1.146,1.1464,1.1447,1.1462,1.1445,1.1439,1.1439,1.1444,1.1493,1.1507,1.1537,1.1475,1.1475,1.1476,0,1.1614,1.1605,1.1615,1.1593,1.1591,1.1594,1.1583,1.1581,1.1566,1.1555,1.1547,1.1527,1.1528,1.1507,1.1508,1.1496,1.1493,1.1484,1.1485,1.1483,1.146,1.1493,1.1547,1.1551,1.1482,1.1481,1.1481,0,1.166,1.165,1.1655,1.1649,1.1624,1.1627,1.1616,1.16,1.1596,1.1586,1.1583,1.1574,1.1568,1.1562,1.1539,1.1526,1.1542,1.1519,1.1533,1.1533,1.1538,1.1538,1.1592,1.1536,1.1536,1.1536,1.1536,0,1.1701,1.1708,1.1675,1.1678,1.1684,1.1658,1.1665,1.1652,1.1638,1.1637,1.1611,1.1611,1.1582,1.1578,1.156,1.1563,1.1561,1.1552,1.1547,1.1554,1.1556,1.1552,1.1549,1.1537,1.1537,1.1537,1.1536,0,1.1754,1.1732,1.1735,1.1711,1.1705,1.1711,1.169,1.1691,1.1675,1.1674,1.1673,1.1647,1.1641,1.1618,1.1607,1.1595,1.1604,1.1595,1.1609,1.1606,1.162,1.1619,1.1673,1.1679,1.162,1.1621,1.1622,0,1.1782,1.1787,1.1763,1.176,1.1751,1.1748,1.1743,1.1717,1.1713,1.1696,1.1699,1.1691,1.1683,1.1675,1.1655,1.1646,1.1637,1.1656,1.1635,1.1642,1.1636,1.1636,1.1636,1.1661,1.1661,1.1662,1.1663,0,1.1833,1.1822,1.1816,1.1806,1.1801,1.1792,1.1781,1.1781,1.1752,1.1748,1.1742,1.1736,1.1724,1.1716,1.1704,1.1693,1.1673,1.1669,1.1672,1.1679,1.1687,1.1682,1.1621,1.1668,1.1668,1.1667,1.1667,1.1667,1.1874,1.1876,1.186,1.1854,1.1843,1.1834,1.1833,1.1817,1.1811,1.1799,1.1784,1.178,1.1764,1.1745,1.1735,1.1731,1.172,1.1724,1.1725,1.1726,1.1729,1.1688,1.1728,1.1728,1.1728,1.1728,1.1728,0,1.1924,1.1912,1.1906,1.1892,1.1887,1.1869,1.1856,1.1853,1.1849,1.1836,1.1828,1.1821,1.1813,1.1792,1.1782,1.1782,1.1773,1.178,1.178,1.1778,1.174,1.1738,1.1788,1.1788,1.1788,1.1788,1.1788,1.1788,1.1949,1.1952,1.1939,1.1936,1.1923,1.1918,1.1912,1.1903,1.1892,1.1885,1.1878,1.1865,1.1848,1.1836,1.1828,1.1822,1.1819,1.183,1.1821,1.1786,1.178,1.1775,1.1773,1.183,1.183,1.1859,1.1859,1.186]}]]